Canadian, TX

3:28 AM CST on December 07, 2019 (GMT -0600)
Hemphill County

Weather History for KHHF - July, 2019

Change the Weather History Date:

Monday, July 22, 2019

  Actual Average (KPPA) Record (KPPA)
Temperature  
Mean Temperature 76 °F -  
Max Temperature 87 °F 90 °F 108 °F (2018)
Min Temperature 64 °F 64 °F 54 °F (1970)
Cooling Degree Days 11    
Growing Degree Days 26 (Base 50)    
Moisture  
Dew Point 62 °F    
Average Humidity 64    
Maximum Humidity 87    
Minimum Humidity 36    
Precipitation  
Precipitation 0.00 in - - ()
Sea Level Pressure  
Sea Level Pressure 30.21 in    
Wind  
Wind Speed 10 mph (NE)    
Max Wind Speed 20 mph    
Max Gust Speed 25 mph    
Visibility 10 miles    
Events      
Averages and records for this station are not official NWS values.
T = Trace of Precipitation, MM = Missing Value Source: NWS Daily Summary

Daily Weather History Graph

Daily Weather History Graph

Search for Another Location

Airport or City:

Astronomy

Jul. 22, 2019 Rise Set
Actual Time 6:41 AM CDT 8:54 PM CDT
Civil Twilight 6:12 AM CDT 9:23 PM CDT
Nautical Twilight 5:37 AM CDT 9:58 PM CDT
Astronomical Twilight 4:58 AM CDT 10:36 PM CDT
Moon No Moon Rise 11:51 AM CDT (7/22)
Length of Visible Light 15h 10m
Length of Day
14h 12m
Waning Gibbous, 72% of the Moon is Illuminated
Jul 22
Waning Gibbous
Jul 24
Last Quarter
Jul 31
New
Aug 7
First Quarter
Aug 15
Full

Hourly Weather History & Observations

Time (CDT) Temp. Heat Index Dew Point Humidity Pressure Visibility Wind Dir Wind Speed Gust Speed Precip Events Conditions
12:15 AM 81.7 °F 84.2 °F 67.3 °F 61% 30.07 in 10.0 mi NE 6.9 mph - N/A   Mostly Cloudy
12:35 AM 81.5 °F 84.4 °F 68.4 °F 64% 30.08 in 10.0 mi NE 10.4 mph 16.1 mph N/A   Scattered Clouds
12:55 AM 81.0 °F 84.1 °F 69.3 °F 67% 30.09 in 10.0 mi ENE 13.8 mph 19.6 mph N/A   Clear
1:15 AM 80.1 °F 83.4 °F 70.7 °F 73% 30.11 in 10.0 mi NE 16.1 mph 24.2 mph N/A   Scattered Clouds
1:35 AM 77.5 °F - 69.3 °F 76% 30.14 in 10.0 mi ENE 19.6 mph 25.3 mph N/A   Clear
1:55 AM 76.1 °F - 68.0 °F 76% 30.15 in 10.0 mi ENE 12.7 mph 21.9 mph N/A   Scattered Clouds
2:15 AM 75.2 °F - 67.6 °F 77% 30.17 in 10.0 mi ENE 11.5 mph 19.6 mph N/A   Scattered Clouds
2:35 AM 75.2 °F - 67.1 °F 76% 30.17 in 10.0 mi ENE 12.7 mph 18.4 mph N/A   Scattered Clouds
2:55 AM 73.8 °F - 66.7 °F 79% 30.17 in 10.0 mi ENE 11.5 mph - N/A   Scattered Clouds
3:15 AM 72.7 °F - 66.4 °F 81% 30.17 in 10.0 mi ENE 8.1 mph - N/A   Scattered Clouds
3:35 AM 72.5 °F - 66.7 °F 82% 30.16 in 10.0 mi ENE 6.9 mph - N/A   Scattered Clouds
3:55 AM 71.8 °F - 66.4 °F 83% 30.15 in 10.0 mi ENE 5.8 mph - N/A   Clear
4:15 AM 71.2 °F - 66.2 °F 84% 30.15 in 10.0 mi NE 6.9 mph - N/A   Clear
4:35 AM 70.9 °F - 66.2 °F 85% 30.16 in 10.0 mi NE 8.1 mph - N/A   Clear
4:55 AM 70.2 °F - 65.7 °F 86% 30.16 in 10.0 mi NE 9.2 mph - N/A   Scattered Clouds
5:15 AM 70.0 °F - 65.5 °F 86% 30.17 in 10.0 mi NNE 8.1 mph - N/A   Clear
5:35 AM 68.9 °F - 64.8 °F 87% 30.19 in 10.0 mi North 6.9 mph - N/A   Clear
5:55 AM 69.1 °F - 64.6 °F 86% 30.20 in 10.0 mi North 10.4 mph - N/A   Mostly Cloudy
6:15 AM 68.9 °F - 64.4 °F 86% 30.21 in 10.0 mi North 9.2 mph - N/A   Scattered Clouds
6:35 AM 68.9 °F - 64.9 °F 87% 30.22 in 10.0 mi North 8.1 mph - N/A   Mostly Cloudy
6:55 AM 68.9 °F - 64.9 °F 87% 30.22 in 10.0 mi NNE 9.2 mph - N/A   Overcast
7:15 AM 70.0 °F - 65.3 °F 85% 30.23 in 10.0 mi NNE 10.4 mph - N/A   Overcast
7:35 AM 70.0 °F - 65.5 °F 86% 30.24 in 10.0 mi NNE 9.2 mph - N/A   Overcast
7:55 AM 70.0 °F - 65.5 °F 86% 30.25 in 10.0 mi NNE 12.7 mph - N/A   Overcast
8:15 AM 70.7 °F - 65.7 °F 84% 30.25 in 10.0 mi NNE 10.4 mph - N/A   Overcast
8:35 AM 70.7 °F - 65.7 °F 84% 30.25 in 10.0 mi NNE 9.2 mph 19.6 mph N/A   Overcast
8:55 AM 71.8 °F - 65.7 °F 81% 30.25 in 10.0 mi NE 12.7 mph - N/A   Overcast
9:15 AM 72.7 °F - 64.4 °F 75% 30.25 in 10.0 mi NNE 12.7 mph 20.7 mph N/A   Mostly Cloudy
9:35 AM 73.9 °F - 64.6 °F 72% 30.25 in 10.0 mi NNE 15.0 mph 19.6 mph N/A   Mostly Cloudy
9:55 AM 73.9 °F - 65.1 °F 74% 30.25 in 10.0 mi North 16.1 mph - N/A   Overcast
10:15 AM 73.4 °F - 64.4 °F 73% 30.26 in 10.0 mi NNE 13.8 mph 24.2 mph N/A   Overcast
10:35 AM 73.4 °F - 64.2 °F 73% 30.26 in 10.0 mi NNE 16.1 mph 24.2 mph N/A   Overcast
10:55 AM 72.1 °F - 64.2 °F 76% 30.26 in 10.0 mi NNE 17.3 mph 24.2 mph N/A   Overcast
11:15 AM 73.2 °F - 64.2 °F 73% 30.27 in 10.0 mi North 11.5 mph 20.7 mph N/A   Overcast
11:35 AM 75.6 °F - 64.0 °F 67% 30.26 in 10.0 mi NNE 15.0 mph - N/A   Overcast
11:55 AM 75.6 °F - 63.0 °F 65% 30.26 in 10.0 mi NE 13.8 mph 18.4 mph N/A   Mostly Cloudy
12:15 PM 79.5 °F - 63.3 °F 58% 30.26 in 10.0 mi NE 17.3 mph - N/A   Mostly Cloudy
12:35 PM 79.5 °F - 63.5 °F 58% 30.27 in 10.0 mi NE 12.7 mph 21.9 mph N/A   Mostly Cloudy
12:55 PM 79.3 °F - 62.8 °F 57% 30.26 in 10.0 mi NE 9.2 mph 16.1 mph N/A   Mostly Cloudy
1:15 PM 79.9 °F - 63.5 °F 57% 30.26 in 10.0 mi NE 13.8 mph - N/A   Mostly Cloudy
1:35 PM 79.9 °F - 63.1 °F 56% 30.26 in 10.0 mi NNE 9.2 mph - N/A   Mostly Cloudy
1:55 PM 82.6 °F 83.6 °F 62.8 °F 51% 30.25 in 10.0 mi ENE 11.5 mph 17.3 mph N/A   Mostly Cloudy
2:15 PM 83.1 °F 84.0 °F 63.0 °F 50% 30.24 in 10.0 mi NE 11.5 mph 17.3 mph N/A   Scattered Clouds
2:35 PM 83.7 °F 84.5 °F 62.4 °F 49% 30.24 in 10.0 mi NE 10.4 mph 18.4 mph N/A   Scattered Clouds
2:55 PM 84.2 °F 84.8 °F 62.1 °F 47% 30.23 in 10.0 mi ENE 10.4 mph 17.3 mph N/A   Scattered Clouds
3:15 PM 84.7 °F 85.2 °F 61.7 °F 46% 30.23 in 10.0 mi NE 8.1 mph 21.9 mph N/A   Scattered Clouds
3:35 PM 85.3 °F 85.4 °F 60.8 °F 44% 30.22 in 10.0 mi NE 11.5 mph 19.6 mph N/A   Scattered Clouds
3:55 PM 86.4 °F 86.3 °F 61.0 °F 42% 30.21 in 10.0 mi NE 10.4 mph 20.7 mph N/A   Clear
4:15 PM 86.5 °F 86.3 °F 60.4 °F 41% 30.21 in 10.0 mi NE 12.7 mph 18.4 mph N/A   Clear
4:35 PM 86.5 °F 86.3 °F 60.3 °F 41% 30.20 in 10.0 mi East 11.5 mph - N/A   Clear
4:55 PM 87.4 °F 87.2 °F 60.3 °F 40% 30.20 in 10.0 mi NNE 8.1 mph 19.6 mph N/A   Clear
5:15 PM 87.8 °F 87.4 °F 60.3 °F 39% 30.19 in 10.0 mi NNE 11.5 mph - N/A   Clear
5:35 PM 87.6 °F 86.5 °F 57.7 °F 36% 30.18 in 10.0 mi NE 6.9 mph 16.1 mph N/A   Clear
5:55 PM 87.4 °F 86.3 °F 57.4 °F 36% 30.18 in 10.0 mi ENE 13.8 mph 18.4 mph N/A   Clear
6:15 PM 86.7 °F 85.4 °F 57.0 °F 36% 30.18 in 10.0 mi NE 10.4 mph 17.3 mph N/A   Clear
6:35 PM 86.7 °F 85.6 °F 57.6 °F 37% 30.17 in 10.0 mi ENE 11.5 mph 18.4 mph N/A   Clear
6:55 PM 86.0 °F 85.0 °F 57.4 °F 38% 30.17 in 10.0 mi ENE 12.7 mph 16.1 mph N/A   Clear
7:15 PM 85.5 °F 84.6 °F 57.7 °F 39% 30.17 in 10.0 mi NE 9.2 mph - N/A   Clear
7:35 PM 84.7 °F 84.0 °F 57.7 °F 40% 30.18 in 10.0 mi ENE 12.7 mph - N/A   Clear
7:55 PM 84.2 °F 83.5 °F 57.2 °F 40% 30.19 in 10.0 mi ENE 11.5 mph - N/A   Clear
8:15 PM 82.9 °F 82.4 °F 56.7 °F 41% 30.19 in 10.0 mi ENE 11.5 mph - N/A   Clear
8:35 PM 81.9 °F 81.4 °F 56.3 °F 41% 30.20 in 10.0 mi ENE 8.1 mph - N/A   Clear
8:55 PM 80.6 °F 80.5 °F 55.8 °F 42% 30.20 in 10.0 mi ENE 8.1 mph - N/A   Clear
9:15 PM 79.0 °F - 55.4 °F 44% 30.21 in 10.0 mi East 5.8 mph - N/A   Clear
9:35 PM 77.2 °F - 55.6 °F 47% 30.23 in 10.0 mi East 4.6 mph - N/A   Clear
9:55 PM 75.2 °F - 56.1 °F 51% 30.24 in 10.0 mi East 3.5 mph - N/A   Clear
10:15 PM 73.9 °F - 55.9 °F 53% 30.26 in 10.0 mi East 3.5 mph - N/A   Clear
10:35 PM 70.5 °F - 56.5 °F 61% 30.26 in 10.0 mi Calm Calm - N/A   Clear
10:55 PM 67.8 °F - 56.8 °F 68% 30.27 in 10.0 mi Calm Calm - N/A   Clear
11:15 PM 65.5 °F - 57.0 °F 74% 30.28 in 10.0 mi Calm Calm - N/A   Clear
11:35 PM 66.2 °F - 57.0 °F 72% 30.28 in 10.0 mi Calm Calm - N/A   Clear
11:55 PM 64.2 °F - 57.0 °F 77% 30.28 in 10.0 mi Calm Calm - N/A   Clear